sat.trackr.live / text

‹ back to catalog

PRISMA

NORAD 44072 · 2019-015A

PAYLOAD ACTIVE UNKNOWN

§ Identity

Operator
Country
IT
Launch date
2019-03-22
Launch site
FRGUI
Launch vehicle
Mass (kg)
RCS (m²)

External: N2YO · Heavens-Above · Gunter

§ Orbital elements

Epoch: 2026-05-25T03:26:12.833376Z

Period
97.06 min
Inclination
97.8642°
Eccentricity
0.0001393
Mean motion
14.83648672 rev/d
Perigee alt
616.9 km
Apogee alt
618.8 km
Semi-major
6,996.0 km
B*
1.1653e-5
RAAN
220.2579°
Arg perigee
87.6875°
Mean anomaly
272.4498°
Rev number
38,863

§ Raw data

PRISMA1 44072U 19015A   26145.14320409  .00000044  00000+0  11653-4 0  99912 44072  97.8642 220.2579 0001393  87.6875 272.4498 14.83648672388632

JSON: /api/v1/satellites/44072 · /tle

For live sub-satellite position, see the globe view (requires WebGL).

§ Visibility from observer

Set your observer location to see the next 7 days of passes ≥ 10°. The values pass through the URL so the page stays shareable.

No JS? Fill the form by hand. The geolocation button needs JavaScript.

§ Radio — SatNOGS DB

ModeDescriptionDownlinkUplink
BPSK S-band telemetry 2.284 GHz

1 transmitter · refreshed weekly from db.satnogs.org